[[{"header":{"parameterUnit":"m.s-1","parameterCategory":1,"la1":30.2991,"la2":30.254,"lo1":-89.0895,"lo2":-89.0444,"dy":0.0017,"dx":0.0017,"nx":28,"ny":28,"refTime":"2025-04-13T03:00:00:Z","depth":0,"parameterNumber":2,"parameterNumberName":"U-component_of_WINDS"},"data":[0,0,0,0,0,0,0,0,0,0,0,0,0,0,0,0,0,0,0,0,0,0,0,0,0,0,0,0,0,0,0,0,0,0,0,0,0,0,0,0,0,0,0,0,0,0,0,0,0,0,0,0,0,0,0,0,0,0,3.1853,3.1854,0,3.1892,3.1892,3.1892,3.1848,3.1846,3.1844,3.1843,3.1881,3.1884,3.1886,0,0,0,0,0,0,0,0,0,0,0,0,0,3.174,3.1743,3.1853,3.1854,3.1854,3.1892,3.1892,3.1893,3.1848,3.1846,3.1844,3.1842,3.188,3.1883,3.1886,0,0,0,0,0,0,0,0,0,0,0,0,0,3.1785,3.1743,3.1853,3.1837,3.1835,3.1891,3.1892,3.1893,3.1848,3.1846,3.1843,3.1841,3.1879,3.1883,3.1887,3.1961,0,0,3.1899,3.19,0,0,0,0,0,0,0,0,3.1783,3.1789,3.1839,3.1838,3.1837,3.1862,3.1866,3.1916,3.1849,3.1843,3.1843,3.184,3.1877,3.1881,3.1893,3.1963,3.1964,3.1899,3.1901,3.1903,3.1904,0,0,0,0,0,0,0,3.178,3.1787,3.1868,3.1839,3.1838,3.1827,3.183,3.1875,3.1874,3.1844,3.1841,3.1846,3.1876,3.189,3.1894,3.1965,3.1899,3.1902,3.1905,3.1906,3.2095,3.2098,0,0,0,0,0,0,3.1779,3.1785,3.1867,3.187,3.1803,3.1831,3.1835,3.1857,3.1873,3.1873,3.1848,3.1843,3.1884,3.1889,3.1895,3.1982,3.1903,3.1907,3.1909,3.2092,3.2096,3.2099,0,0,0,0,0,0,3.1776,3.1786,3.1866,3.1827,3.1836,3.1835,3.186,3.1859,3.1872,3.1876,3.1876,3.1862,3.1883,3.189,3.1944,3.1982,3.1908,3.1912,3.2089,3.2093,3.2097,3.2156,0,0,0,0,0,0,3.1773,3.1786,3.1814,3.1828,3.1838,3.1915,3.1863,3.1861,3.1879,3.1874,3.189,3.189,3.1881,3.1939,3.1948,3.1986,3.1915,3.2086,3.2091,3.2096,3.2151,3.2162,3.2171,0,0,0,0,0,3.1769,3.183,3.1816,3.1826,3.1874,3.1917,3.1923,3.1912,3.1883,3.1911,3.1913,3.1889,3.1977,3.1945,3.1955,3.1995,3.2083,3.209,3.2095,3.2146,3.2159,3.2171,0,0,0,0,0,0,3.1821,3.1831,3.1816,3.1883,3.1899,3.191,3.1945,3.1927,3.1952,3.1946,3.1931,3.1935,3.1993,3.2,3.1964,3.2067,3.2025,3.2034,3.206,3.2073,3.2083,3.208,3.1918,0,0,0,0,0,3.184,3.1875,3.1882,3.194,3.1949,3.1946,3.1964,3.1954,3.1971,3.1978,3.1984,3.2001,3.2032,3.2053,3.2082,3.2152,3.2154,3.2184,3.2194,3.2202,3.2209,3.2245,3.2258,3.2119,3.2118,3.2118,0,0,3.188,3.189,3.1913,3.195,3.1962,3.1998,3.1952,3.1992,3.2018,3.1984,3.2036,3.2041,3.2059,3.2121,3.2149,3.2128,3.2248,3.221,3.2217,3.2219,3.2253,3.2266,3.2278,3.2123,3.2122,3.2121,0,0,3.197,3.1982,3.203,3.2043,3.2062,3.2059,3.2071,3.2084,3.2086,3.2138,3.2112,3.2143,3.2198,3.2211,3.2225,3.2319,3.2298,3.2329,3.2382,3.2417,3.2428,3.2437,3.247,3.2482,3.2337,3.2337,3.2337,0,3.2017,3.207,3.2058,3.21,3.2116,3.2087,3.2136,3.2149,3.2176,3.2188,3.2164,3.2231,3.2241,3.2305,3.2328,3.2341,3.2353,3.2327,3.2427,3.2437,3.2446,3.2476,3.2489,3.234,3.234,3.234,3.2339,0,3.2126,3.2164,3.2201,3.2227,3.2249,3.2294,3.2287,3.231,3.2298,3.2298,3.235,3.2361,3.2391,3.2406,3.2395,3.2468,3.2455,3.243,3.2388,3.2463,3.2491,3.2503,3.2345,3.2344,3.2343,3.2342,0,0,3.2249,3.2269,3.2282,3.2294,3.2312,3.234,3.2384,3.2413,3.2432,3.2452,3.2487,3.2533,3.251,3.2526,3.2516,3.2547,3.2619,3.2518,3.2518,3.2535,3.2699,3.2717,3.2731,3.2605,3.2608,3.2609,3.2697,0,3.2339,3.2414,3.2404,3.2476,3.251,3.2482,3.252,3.2534,3.2535,3.2563,3.2564,3.2596,3.2564,3.2573,3.2603,3.2604,3.2652,3.2598,3.2637,3.2638,3.2632,3.2746,3.2765,3.2847,3.2708,3.271,3.2711,0,3.2453,3.2477,3.2552,3.2564,3.2578,3.2612,3.2637,3.2665,3.2681,3.2679,3.2697,3.2681,3.2723,3.2681,3.2739,3.2702,3.2718,3.2721,3.2724,3.2726,3.2679,3.275,3.2873,3.2885,3.2729,3.2728,3.2726,0,3.2534,3.2585,3.2636,3.2647,3.2662,3.2687,3.2694,3.2708,3.2726,3.2748,3.2759,3.2786,3.2801,3.2822,3.2813,3.2783,3.2872,3.2829,3.287,3.2871,3.2889,3.2888,3.3015,3.2902,3.2901,3.2901,3.2901,0,3.2634,3.2681,3.2672,3.2704,3.2755,3.2743,3.2793,3.2798,3.281,3.2841,3.2819,3.2848,3.2836,3.2865,3.2858,3.2906,3.2913,3.2912,3.2909,3.2913,3.2913,3.2922,3.2916,3.2904,3.2904,3.2903,3.2903,0,3.2732,3.2728,3.2782,3.2793,3.2796,3.2834,3.2842,3.2871,3.287,3.291,3.2918,3.2917,3.2949,3.2943,3.2979,3.2974,3.3033,3.3025,3.3028,3.3025,3.3066,3.3062,3.3203,3.322,3.3097,3.3098,3.3099,0,3.2795,3.2831,3.2845,3.2864,3.2874,3.2905,3.2924,3.2913,3.2932,3.2953,3.2979,3.3009,3.3033,3.3086,3.3087,3.3114,3.3105,3.3152,3.3109,3.3111,3.3104,3.3101,3.3104,3.3161,3.3162,3.3163,3.3164,0,3.2908,3.2904,3.2931,3.2958,3.298,3.3001,3.3019,3.3036,3.3026,3.305,3.3082,3.3101,3.3137,3.3167,3.3192,3.3199,3.318,3.3178,3.3189,3.3192,3.3192,3.3191,3.305,3.3175,3.3174,3.3173,3.3172,3.3172,3.2989,3.3019,3.3033,3.3064,3.3077,3.3094,3.3122,3.3124,3.3152,3.318,3.3172,3.3209,3.3223,3.3254,3.3264,3.3292,3.3274,3.329,3.3294,3.3298,3.3302,3.3189,3.3297,3.3297,3.3296,3.3296,3.3296,0,3.3099,3.3107,3.3136,3.3162,3.3186,3.3167,3.3185,3.3207,3.324,3.3254,3.3278,3.3315,3.3344,3.3348,3.3375,3.3396,3.3388,3.3404,3.3401,3.3403,3.3317,3.3305,3.341,3.341,3.341,3.341,3.341,3.341,3.3159,3.3207,3.3206,3.326,3.3267,3.3304,3.3316,3.3332,3.3343,3.3386,3.341,3.3412,3.3422,3.345,3.3475,3.3475,3.3485,3.3504,3.3501,3.3421,3.3409,3.3398,3.3386,3.3507,3.3507,3.3584,3.3585,3.3585]},{"header":{"parameterUnit":"m.s-1","parameterCategory":1,"la1":30.2991,"la2":30.254,"lo1":-89.0895,"lo2":-89.0444,"dy":0.0017,"dx":0.0017,"nx":28,"ny":28,"refTime":"2025-04-13T03:00:00:Z","depth":0,"parameterNumber":3,"parameterNumberName":"V-component_of_WINDS"},"data":[0,0,0,0,0,0,0,0,0,0,0,0,0,0,0,0,0,0,0,0,0,0,0,0,0,0,0,0,0,0,0,0,0,0,0,0,0,0,0,0,0,0,0,0,0,0,0,0,0,0,0,0,0,0,0,0,0,0,5.0782,5.0783,0,5.0881,5.0882,5.0883,5.0901,5.09,5.0899,5.0899,5.0993,5.0996,5.1,0,0,0,0,0,0,0,0,0,0,0,0,0,5.0599,5.0602,5.0781,5.0783,5.0784,5.0881,5.0882,5.0884,5.0901,5.09,5.0899,5.0898,5.0992,5.0996,5.1,0,0,0,0,0,0,0,0,0,0,0,0,0,5.0686,5.0604,5.0781,5.0805,5.0808,5.0881,5.0882,5.0884,5.0901,5.09,5.0899,5.0898,5.0991,5.0996,5.1,5.1055,0,0,5.1015,5.1018,0,0,0,0,0,0,0,0,5.0681,5.0693,5.08,5.0803,5.0807,5.0878,5.0853,5.0941,5.0902,5.0866,5.0899,5.0897,5.0955,5.0963,5.0984,5.1059,5.1064,5.1016,5.1019,5.1021,5.1022,0,0,0,0,0,0,0,5.0675,5.0689,5.0821,5.0801,5.0806,5.0808,5.0819,5.087,5.0916,5.0869,5.087,5.0882,5.0957,5.0979,5.0986,5.1065,5.1016,5.102,5.1023,5.1025,5.1189,5.119,0,0,0,0,0,0,5.0666,5.0684,5.0818,5.0824,5.074,5.0812,5.0824,5.0856,5.0915,5.0923,5.0883,5.0883,5.0972,5.0981,5.099,5.1058,5.1021,5.1026,5.1028,5.1188,5.1189,5.1191,0,0,0,0,0,0,5.0662,5.0678,5.0814,5.0754,5.0772,5.0816,5.0852,5.0858,5.0881,5.0926,5.0934,5.0898,5.0971,5.0983,5.1039,5.1061,5.1028,5.1032,5.1186,5.1188,5.119,5.1193,0,0,0,0,0,0,5.0657,5.0676,5.0699,5.0755,5.0775,5.0863,5.0853,5.0861,5.089,5.0891,5.0942,5.095,5.0971,5.1032,5.1044,5.1067,5.1036,5.1184,5.1187,5.1189,5.1191,5.1195,5.1199,0,0,0,0,0,5.065,5.0695,5.07,5.0717,5.0805,5.0865,5.0876,5.0902,5.0892,5.0915,5.0943,5.0948,5.1057,5.1037,5.1051,5.1076,5.1183,5.1186,5.1189,5.119,5.1195,5.1199,0,0,0,0,0,0,5.0638,5.0702,5.0709,5.0774,5.0814,5.0868,5.0897,5.0906,5.0947,5.0946,5.0973,5.0985,5.1039,5.1063,5.1041,5.1132,5.1119,5.1125,5.1114,5.1119,5.1123,5.1116,5.104,0,0,0,0,0,5.0644,5.0689,5.0742,5.0793,5.0813,5.0851,5.0878,5.0895,5.0937,5.0953,5.0986,5.1024,5.1067,5.1094,5.1136,5.1195,5.1206,5.1219,5.1222,5.1225,5.123,5.1262,5.1268,5.1201,5.1201,5.1201,0,0,5.0654,5.0695,5.0721,5.0792,5.0825,5.0869,5.0866,5.0913,5.0945,5.0959,5.1015,5.104,5.1085,5.1142,5.1169,5.1164,5.1251,5.1229,5.1231,5.1234,5.1266,5.1272,5.1278,5.1204,5.1203,5.1203,0,0,5.0696,5.0732,5.0779,5.0813,5.0864,5.0889,5.09,5.0953,5.0971,5.1028,5.1039,5.1077,5.115,5.1181,5.1206,5.126,5.1266,5.1273,5.1291,5.1322,5.1327,5.1332,5.1351,5.1357,5.1277,5.1277,5.1277,0,5.0702,5.0772,5.0801,5.0849,5.0879,5.0896,5.0942,5.0972,5.1033,5.1052,5.1046,5.1139,5.1169,5.1235,5.1248,5.1268,5.128,5.1267,5.1325,5.133,5.1335,5.1353,5.136,5.1278,5.1278,5.1278,5.1278,0,5.0777,5.0825,5.0856,5.0918,5.0951,5.0997,5.1031,5.1061,5.1074,5.1099,5.1156,5.1194,5.1244,5.126,5.1272,5.1327,5.1322,5.132,5.1307,5.1341,5.1359,5.1366,5.1279,5.1278,5.1278,5.1278,0,0,5.0814,5.0892,5.0903,5.0931,5.0988,5.1024,5.1071,5.1122,5.1147,5.1187,5.1226,5.1288,5.1286,5.1315,5.1331,5.1358,5.1398,5.1353,5.1354,5.136,5.1459,5.146,5.1468,5.1402,5.1403,5.1404,5.1455,0,5.0863,5.095,5.0977,5.1048,5.1092,5.1108,5.1148,5.1187,5.1211,5.125,5.1275,5.1319,5.1314,5.1332,5.136,5.1387,5.1418,5.1384,5.1436,5.1438,5.1425,5.1477,5.1479,5.1525,5.1462,5.1463,5.1464,0,5.0932,5.0977,5.1053,5.1105,5.1125,5.1161,5.1209,5.1247,5.129,5.1305,5.1338,5.1352,5.1398,5.1383,5.1447,5.1423,5.1446,5.1462,5.1465,5.147,5.1453,5.1484,5.154,5.1547,5.1475,5.1474,5.1474,0,5.0951,5.103,5.1087,5.111,5.1172,5.1197,5.1223,5.1265,5.1294,5.1336,5.1354,5.14,5.1424,5.1458,5.1483,5.147,5.1544,5.1531,5.1557,5.1556,5.1572,5.1571,5.1633,5.1587,5.1586,5.1586,5.1586,0,5.1003,5.1049,5.1096,5.1131,5.1182,5.1212,5.1261,5.1287,5.1325,5.1363,5.1379,5.1413,5.1444,5.1482,5.1502,5.1551,5.1562,5.1575,5.1579,5.1573,5.1572,5.1589,5.1586,5.1588,5.1588,5.1587,5.1587,0,5.1033,5.1067,5.113,5.1184,5.1198,5.1234,5.1279,5.1312,5.1337,5.1385,5.1397,5.1436,5.1482,5.151,5.1567,5.158,5.1635,5.1638,5.1621,5.1623,5.1647,5.1645,5.1722,5.1734,5.168,5.168,5.1681,0,5.1064,5.1101,5.1159,5.1188,5.1215,5.1259,5.129,5.1319,5.135,5.1401,5.1427,5.1475,5.1515,5.1587,5.1618,5.1662,5.1666,5.169,5.1673,5.1666,5.1666,5.1664,5.1667,5.1693,5.1694,5.1694,5.1694,0,5.1116,5.1131,5.1175,5.1226,5.1262,5.1302,5.1342,5.1363,5.1399,5.1432,5.1481,5.1512,5.1571,5.1618,5.1664,5.1689,5.1697,5.17,5.1708,5.1702,5.1691,5.1698,5.1629,5.1698,5.1697,5.1697,5.1697,5.1697,5.1147,5.118,5.1227,5.1276,5.1309,5.1346,5.138,5.141,5.1452,5.1505,5.1519,5.157,5.161,5.1674,5.17,5.1738,5.1734,5.1746,5.1749,5.1752,5.1752,5.1685,5.1746,5.1746,5.1746,5.1746,5.1746,0,5.1199,5.1231,5.1275,5.1332,5.137,5.1377,5.1421,5.1451,5.1497,5.1535,5.1575,5.163,5.1675,5.171,5.1756,5.178,5.1784,5.179,5.1789,5.1794,5.1753,5.1741,5.1786,5.1786,5.1786,5.1786,5.1786,5.1786,5.1231,5.1287,5.1308,5.138,5.141,5.1462,5.1486,5.152,5.1551,5.1613,5.1652,5.1675,5.1712,5.176,5.1801,5.181,5.1826,5.1831,5.1841,5.1802,5.1797,5.1793,5.1782,5.1835,5.1835,5.1879,5.1879,5.188]}]]